Simultaneous Nadir Overpasses (SNOs) Predictions

Prediction of SNOs between AURA and NPP Satellite Orbit:

Table of predicted SNOs for the next 14.0 days since TLE Epoch: 10/9/2015
Index Date (AURA) Time (AURA) Lat,Lon (AURA) SZA (AURA ) Date (NPP) Time (NPP) Lat,Lon (NPP) SZA (NPP ) Distance(km) Time Diff (sec)
1 10/10/2015 17:29:51 -79.01, -8.85 80.91 10/10/2015 17:29:24 -79.02, -8.73 80.91 2.71 27
2 10/10/2015 18:19:10 79.28, 160.50 98.74 10/10/2015 18:20:01 79.28, 160.48 98.71 0.58 51
3 10/13/2015 09:46:19 -79.11, 107.63 80.09 10/13/2015 09:46:15 -79.12, 107.74 80.10 2.26 4
4 10/13/2015 10:35:29 79.68, -80.88 99.15 10/13/2015 10:36:43 79.64, -80.87 99.10 4.71 74
5 10/16/2015 01:13:28 78.83, 54.20 101.22 10/16/2015 01:12:30 78.83, 54.27 101.25 1.68 58
6 10/16/2015
